Location: Newark
(48.1500°N, 2.9667°W)
Time: 06:15:20
(UTC+00:00)

Altair - Pass Details

Date: 03 February 2020
Orbit: 1502 x 1682 km, 47.2° (Epoch: 17 February)

Event Time Altitude Azimuth Distance (km) Brightness Sun altitude
Rises 12:15:43 0° 290° (WNW) 4,929 9.9 25.2°
Reaches altitude 10° 12:19:00 10° 285° (WNW) 3,946 9.6 25.2°
Maximum altitude 12:28:33 49° 215° (SW) 2,086 9.3 25.3°
Drops below altitude 10° 12:38:00 10° 145° (SE) 3,896 10.6 25.2°
Sets 12:41:14 0° 140° (SE) 4,861 10.8 25.2°
